Regional Weather Roundup
Issued by NWS

Home | Current Version | Previous Version | Graphics & Text | Print | Product List | Glossary On
Versions: 1 2 3 4 5 6 7 8 9 10 11 12 13 14 15 16 17 18 19 20 21 22 23 24 25 26 27 28 29 30 31 32 33 34 35 36 37 38 39 40 41 42 43 44 45 46 47 48 49 50
501
ASUS44 KJAN 181103
RWRMS

MISSISSIPPI HOURLY WEATHER ROUNDUP
NATIONAL WEATHER SERVICE JACKSON MS
600 AM CDT SAT APR 18 2015

NOTE: "FAIR: INDICATES FEW OR NO CLOUDS BELOW 12,000 FEET WITH NO
SIGNIFICANT WEATHER AND/OR OBSTRUCTIONS TO VISIBILITY.

MSZ001>002-007>008-010>013-018>021-025>028-034>036-181200-
NORTHWEST MISSISSIPPI

CITY           SKY/WX    TMP DP  RH WIND       PRES   REMARKS
CLARKSDALE     MOCLDY    63  63 100 CALM      29.96S
CLEVELAND      FAIR      63  63 100 CALM      29.93S
GREENWOOD      CLOUDY    63  60  90 VRB3      29.94S
GREENVILLE     CLOUDY    64  62  93 E3        29.93S
OLIVE BRANCH   PTCLDY    57 N/A N/A CALM      29.98S
OXFORD         FAIR      57  57 100 CALM      29.98S
TUNICA         CLOUDY    63  61  94 NE3       29.97S FOG
$$

MSZ003>006-009-014>017-022>024-029>033-037>039-181200-
NORTHEAST MISSISSIPPI

CITY           SKY/WX    TMP DP  RH WIND       PRES   REMARKS
COLUMBUS AFB   CLOUDY    62  62 100 NE5       29.97S
CORINTH        FOG       59  59 100 CALM      29.98F VSB<1/4
GOLDN TRIANGLE CLOUDY    63  61  94 NE3       29.96S
STARKVILLE     CLOUDY    61  61 100 NE5       29.96S
TUPELO         CLOUDY    61  59  93 E6        29.97F FOG
$$

MSZ040-058-181200-
CENTRAL MISSISSIPPI

CITY           SKY/WX    TMP DP  RH WIND       PRES   REMARKS
JACKSON INTL   CLOUDY    65  62  90 E7        29.93F
JACKSON HAWKNS CLOUDY    65  62  90 E8        29.93F
MERIDIAN KEY   CLOUDY    64  61  90 E5        29.95S
MERIDIAN NAS   CLOUDY    63  61  93 E5        29.96R
RAYMOND        CLOUDY    66  61  82 E8        29.92F
VICKSBURG      CLOUDY    66  64  93 E9        29.90F
$$

MSZ059>079-181200-
SOUTH MISSISSIPPI

CITY           SKY/WX    TMP DP  RH WIND       PRES   REMARKS
BROOKHAVEN     CLOUDY    66  66 100 SE3       29.94S
HATTIESBURG    CLOUDY    66  64  93 N5        29.95R
MCCOMB         CLOUDY    67  67 100 E3        29.93S FOG
NATCHEZ        CLOUDY    66  64  94 E9        29.87F
PINE BELT      CLOUDY    63  61  94 E6        29.95R
$$

MSZ080>082-181200-
COASTAL MISSISSIPPI

CITY           SKY/WX    TMP DP  RH WIND       PRES   REMARKS
BILOXI         RAIN      69  69 100 NE6       29.92S
PASCAGOULA     LGT RAIN  68  68 100 CALM      29.94R FOG
GULFPORT       LGT RAIN  69  67  93 NE3       29.92S FOG
$$



USA.gov is the U.S. government's official web portal to all federal, state and local government web resources and services.